Location: Bow
(51.5261°N, 0.0167°W)
Time: 16:58:52
(UTC+00:00)

Cosmos 1626 - Pass Details

Date: 18 September 2020
Orbit: 490 x 495 km, 82.5° (Epoch: 31 October)

Event Time Altitude Azimuth Distance (km) Brightness Sun altitude
Rises 20:11:59 0° 353° (N) 2,593 6.3 -19.4°
Reaches altitude 10° 20:14:10 10° 358° (N) 1,704 5.2 -19.7°
Enters shadow 20:17:29 49° 56° (NE) 646 2.4 -20.2°
